Regional Weather Roundup
Issued by NWS Green Bay, WI

Home | Current Version | Previous Version | Text Only | Print | Product List | Glossary On
Versions: 1 2 3 4 5 6 7 8 9 10 11 12 13 14 15 16 17 18 19 20 21 22 23 24 25 26 27 28 29 30 31 32 33 34 35 36 37 38 39 40 41 42 43 44 45 46 47 48 49 50
000
ASUS43 KGRB 230659
RWRGRB

NORTH-CENTRAL AND NORTHEAST WISCONSIN REGIONAL WEATHER ROUNDUP
NATIONAL WEATHER SERVICE GREEN BAY WI
200 AM CDT TUE SEP 23 2014

WIZ005-009-010>012-018-019-230800-
NORTH CENTRAL WISCONSIN

CITY           SKY/WX    TMP DP  RH WIND       PRES   REMARKS
IRONWOOD       CLEAR     54  52  94 SW7       30.16R
MANITOWISH WTR NOT AVBL
ARBOR VITAE    NOT AVBL
EAGLE RIVER    NOT AVBL
LAND O LAKES   NOT AVBL
RHINELANDER    CLEAR     46  45  96 W7        30.22R
PHILLIPS       CLEAR     44  42  95 CALM      30.21S
ANTIGO         NOT AVBL
TOMAHAWK       NOT AVBL
MERRILL        NOT AVBL
$$

WIZ013-073-230800-
NORTHEAST WISCONSIN

CITY           SKY/WX    TMP DP  RH WIND       PRES   REMARKS
IRON MOUNTAIN  CLEAR     49  46  90 CALM      30.17R
MARINETTE      CLEAR     52  48  87 CALM      30.18S
$$

WIZ017-030-035>037-045-230800-
CENTRAL WISCONSIN

CITY           SKY/WX    TMP DP  RH WIND       PRES   REMARKS
MEDFORD        NOT AVBL
WAUSAU         CLEAR     48  47  96 CALM      30.21R
MOSINEE        CLEAR     46  46 100 SW3       30.23S
MARSHFIELD     CLEAR     48  47  96 CALM      30.22S
WISC RAPIDS    FOG       45  44  97 CALM      30.23S VSB 1/2
STEVENS POINT  NOT AVBL
WAUPACA        NOT AVBL
SHAWANO        CLEAR     49  46  91 CALM      30.21S
CLINTONVILLE   CLEAR     45  45 100 CALM      30.21S
$$

WIZ038-039-048-051-230800-
FOX VALLEY

CITY           SKY/WX    TMP DP  RH WIND       PRES   REMARKS
NWS GREEN BAY  CLEAR     48  47  96 CALM      30.21S
APPLETON       NOT AVBL
OSHKOSH        CLEAR     53  49  86 SW3       30.22S
FOND DU LAC    CLEAR     52  48  86 SW6       30.23S
$$

WIZ022-050-052-230800-
EAST CENTRAL WISCONSIN

CITY           SKY/WX    TMP DP  RH WIND       PRES   REMARKS
STURGEON BAY   CLEAR     55  48  76 SW6       30.20S
MANITOWOC      NOT AVBL
SHEBOYGAN      CLEAR     47  45  93 SW3       30.23R
$$

LMZ563-521-522-541>543-230800-
LAKESHORE

STATION/POSITION TIME  TEMP    WIND        PRES    VSBY  WAVE
                       AIR SEA DIR/SP/G                  HT/PER
                 (UTC) (F)     (DEG/KT/KT) (MB)    (MI)  (FT/S)
SHEBOYGAN LKSHOR 0600   56 53  240/  8/  9 1023.7R
KEWAUNEE LKSHORE 0600   52     300/  6/  7 1021.8R
NORTHPORT PIER   0600   60     270/  5/ 11 1021.3S
N MID LAKE BUOY  0600   58 57  240/ 12/ 14 1021.5R         2/ 5
S GREEN BAY BUOY 0600   59     VRB  8/ 10  1023.4R
CHAMBERS ISLAND  0600   56     210/  5/  8 1022.0R
MENOMINEE LKSHOR 0600   56     250/  8/ 12 1022.5R
$$



USA.gov is the U.S. government's official web portal to all federal, state and local government web resources and services.